Regional Weather Roundup
Issued by NWS

Home | Current Version | Previous Version | Graphics & Text | Print | Product List | Glossary On
Versions: 1 2 3 4 5 6 7 8 9 10 11 12 13 14 15 16 17 18 19 20 21 22 23 24 25 26 27
000
ASUS45 KTFX 272210
RWRMT
MONTANA REGIONAL WEATHER ROUNDUP
NATIONAL WEATHER SERVICE GREAT FALLS MT
400 PM MDT WED APR 27 2016

NOTE: "FAIR" INDICATES FEW OR NO CLOUDS BELOW 12000 FEET WITH NO
SIGNIFICANT WEATHER AND/OR OBSTRUCTIONS TO VISIBILITY.

MTZ001>007-043-272300-
WEST OF THE DIVIDE

CITY           SKY/WX    TMP DP  RH WIND       PRES   REMARKS
KALISPELL      SUNNY     61  34  36 NE15      29.91S
MISSOULA       CLOUDY    58  32  37 SE15      29.88F
BUTTE          CLOUDY    42  27  55 CALM      29.92F
MULLAN PASS    LGT RAIN  36  34  92 SE9       29.92S WCI  29
ANACONDA         N/A     48  28  46 N15G21    29.92F
DEER LODGE       N/A     45  30  57 NE12      29.95F
EUREKA           N/A     64  25  22 NW9       29.88F
HAMILTON         N/A     59  27  29 NW18G26   29.84F
LIBBY            N/A     57  45  62 N6        29.89F
PLAINS           N/A     66  39  37 NE7       29.87F
$$

MTZ008-052>055-272300-
SOUTHWEST MONTANA

CITY           SKY/WX    TMP DP  RH WIND       PRES   REMARKS
BOZEMAN        CLOUDY    44  37  76 CALM      29.93S
DILLON         CLOUDY    50  28  42 NE17G25   29.88F
ENNIS          CLOUDY    43  30  61 N14       29.95F
THREE FORKS      N/A     48  34  58 N8        29.93F
TWIN BRIDGES     N/A     51  27  39 N20       29.90F
$$

MTZ009-010-012-014-046-048-049-054-272300-
EAST SLOPES AND CENTRAL MONTANA

CITY           SKY/WX    TMP DP  RH WIND       PRES   REMARKS
GREAT FALLS    LGT RAIN  38  35  89 NE10      30.02F WCI  31
HELENA         CLOUDY    47  31  53 N16       29.97S
CHOTEAU          N/A     39  37  93 NE9       30.04S FOG
CONRAD           N/A     41  40  96 N8        30.06F
$$

MTZ011-013-016-021-045-047-050-051-272300-
NORTH CENTRAL MONTANA

CITY           SKY/WX    TMP DP  RH WIND       PRES   REMARKS
HAVRE          LGT RAIN  41  38  89 E10       30.07S
LEWISTOWN      FLURRIES  37  33  85 N6        30.00R
N BAR RANCH    LGT SNOW  36  34  93 N8G15     29.98S WCI  29
CHINOOK          N/A     43  37  81 NE8       30.07S
$$

MTZ017>020-022>027-061-062-272300-
NORTHEAST MONTANA

CITY           SKY/WX    TMP DP  RH WIND       PRES   REMARKS
GLASGOW        LGT RAIN  40  36  86 E13       30.05F FOG
JORDAN           N/A     35  34  96 E13       30.00S WCI  26
SIDNEY         CLOUDY    46  32  57 E10       30.01S
WOLF POINT     LGT RAIN  44  38  79 SE10      30.05R
PLENTYWOOD       N/A     52  23  32 E16       30.04S
SCOBEY           N/A     49  25  39 E14       30.03S
$$

MTZ028>42-056>058-272300-
SOUTHCENTRAL AND SOUTHEAST MONTANA

CITY           SKY/WX    TMP DP  RH WIND       PRES   REMARKS
BAKER          LGT SNOW  34  31  88 N6        29.95S VSB 3/4 WCI  29
BILLINGS       LGT RAIN  36  34  92 NE14      29.97S WCI  27
LIVINGSTON     LGT RAIN  41  35  79 E12       29.91F
MILES CITY     LGT RAIN  38  34  85 NE15      29.96S WCI  29
EKALAKA          N/A     32  30  92 N7        29.90S WCI  26
FORSYTH          N/A     37  37 100 N7        29.96F
LAUREL           N/A     39  30  70 N5        29.96R
ROUNDUP          N/A     37  32  82 N13       29.90S WCI  29
$$

REGIONAL REPORTS...DAKOTAS

CITY           SKY/WX    TMP DP  RH WIND       PRES   REMARKS
WILLISTON      CLOUDY    50  25  37 E12       30.01F
MINOT          PTSUNNY   58  21  24 NE17G24   29.99S
DICKINSON      CLOUDY    38  33  82 N10       29.90F WCI  31
BEACH          CLOUDY    34  34 100 NE7       29.99S WCI  28
CROSBY         PTSUNNY   54  23  30 NE15      30.05F
TIOGA          CLOUDY    50  21  32 E20       30.05S
WATFORD CITY   CLOUDY    46  25  42 E10       29.99F
BISMARCK       CLOUDY    49  27  42 E18G25    29.89F
GRAND FORKS    CLOUDY    58  25  28 NE23      29.94F
FARGO          PTSUNNY   57  21  24 E22G30    29.88S
BUFFALO SD       N/A     34  32  92 N10       29.83R WCI  26
RAPID CITY     LGT SNOW  34  33  96 N23G31    29.83R FOG     WCI  22
$$

REGIONAL REPORTS...WYOMING/IDAHO/WASHINGTON

CITY           SKY/WX    TMP DP  RH WIND       PRES   REMARKS
GILLETTE       LGT SNOW  35  32  88 N12       29.87F WCI  27
SHERIDAN       LGT SNOW  36  34  92 N12       29.93S FOG     WCI  28
BUFFALO WY     LGT SNOW  34  31  88 N14G25    29.89S VSB 3/4 WCI  25
CODY           CLOUDY    37  34  87 N13       29.90F WCI  29
YELLOWSTONE LA   N/A     34  25  69 CALM      29.88F
IDAHO FALLS    CLOUDY    58  26  29 NE12      29.80F
SALMON         MOSUNNY   61  27  27 CALM      29.76F
BOISE          CLOUDY    60  37  42 NW15      29.81F
SPOKANE        MOSUNNY   63  36  36 VRB3      29.86F
$$

REGIONAL REPORTS...ALBERTA

CITY           SKY/WX    TMP DP  RH WIND       PRES   REMARKS
EDMONTON       PTSUNNY   63  32  31 SE9G17    30.05S
CALGARY        MOSUNNY   54  32  43 SE13G18   30.06S
LETHBRIDGE     CLOUDY    46  32  57 E13G36    30.07F
MEDICINE HAT   CLOUDY    46  34  61 E8        30.11S
$$

REGIONAL REPORTS...SASKATCHEWAN

CITY           SKY/WX    TMP DP  RH WIND       PRES   REMARKS
SWIFT CURRENT  CLOUDY    50  23  34 E10G17    30.08S
REGINA         CLOUDY    54  18  24 SE12      30.10S
SASKATOON      PTSUNNY   63  23  22 E10       30.13S
$$




USA.gov is the U.S. government's official web portal to all federal, state and local government web resources and services.